User: anonymous
Location: La Vergne
(36.0160°N, 86.5820°W)
Time: 00:54:08
(UTC-05:00)
Language:

Cosmos 1703 Rocket - Orbit

View from above orbital plane
View from above orbital plane
View from above satellite
View from above satellite

Ground track
Ground track

The orbit data is extracted from the following two-line orbital elements,

1 16263U 85108B   14233.47545742  .00000194  00000-0  21175-4 0  7375
2 16263 082.5070 000.9766 0021607 139.7737 288.6045 14.82444393551649
Epoch (UTC): 21 August 2014 11:24:39
Eccentricity: 0.0021607
inclination: 82.5070°
perigee height: 606 km
apogee height: 637 km
right ascension of ascending node: 0.9766°
argument of perigee: 139.7737°
revolutions per day: 14.82444393
mean anomaly at epoch: 288.6045°
orbit number at epoch: 55164

The dashed part of the orbit path shows where the satellite is in the earth's shadow,  

DLR